Location: Newark
(30.0333°N, 31.2167°E)
Time: 14:25:17
(UTC+00:00)

A-11 Canister half - All Passes

Search period start: 23 January 2020 00:00
Search period end: 02 February 2020 00:00
Orbit: 1525 x 1684 km, 47.3° (Epoch: 22 January)

Date Brightness Start Highest point End Pass type
(mag) Time Alt. Az. Time Alt. Az. Time Alt. Az.
23 Jan - 01:54:49 10° WSW 01:56:59 11° WSW 01:59:10 10° SW visible
23 Jan - 12:54:36 10° S 13:01:06 21° SE 13:07:37 10° E daylight
23 Jan - 14:55:50 10° SW 15:05:08 88° SE 15:14:40 10° NE daylight
23 Jan - 17:02:36 10° W 17:11:03 37° NNW 17:19:46 10° NE visible
23 Jan - 19:10:53 10° NW 19:18:47 28° N 19:26:53 10° ENE visible
23 Jan - 21:16:44 10° NW 21:26:06 49° NNE 21:35:43 10° ESE night (unlit)
23 Jan - 23:21:48 10° WNW 23:31:28 61° SW 23:41:20 10° SSE night (unlit)
24 Jan - 01:31:59 10° WSW 01:35:23 12° WSW 01:38:49 10° SW visible
24 Jan - 12:33:23 10° SSE 12:39:31 20° SE 12:45:40 10° E daylight
24 Jan - 14:34:13 10° SW 14:43:31 84° SE 14:53:00 10° NE daylight
24 Jan - 16:40:49 10° W 16:49:19 38° NNW 16:58:05 10° NE visible
24 Jan - 18:49:10 10° NW 18:57:01 28° N 19:05:03 10° ENE visible
24 Jan - 20:55:06 10° NW 21:04:23 47° NNE 21:13:54 10° E visible
24 Jan - 23:00:08 10° NW 23:09:49 64° SW 23:19:46 10° SSE night (unlit)
25 Jan - 01:09:32 10° W 01:13:48 13° WSW 01:18:05 10° SSW night (unlit)
25 Jan - 12:12:13 10° SSE 12:17:58 18° SE 12:23:42 10° E daylight
25 Jan - 14:12:38 10° SW 14:21:54 80° SE 14:31:20 10° NE daylight
25 Jan - 16:19:02 10° W 16:27:36 39° NNW 16:36:24 10° NE visible
25 Jan - 18:27:26 10° NW 18:35:14 27° N 18:43:14 10° ENE visible
25 Jan - 20:33:28 10° NW 20:42:40 45° NNE 20:52:06 10° E visible
25 Jan - 22:38:28 10° NW 22:48:11 67° SW 22:58:10 10° SE night (unlit)
26 Jan - 00:47:17 10° W 00:52:11 15° WSW 00:57:10 10° SSW night (unlit)
26 Jan - 11:51:06 10° SSE 11:56:24 17° ESE 12:01:42 10° E daylight
26 Jan - 13:51:03 10° SW 14:00:17 76° SE 14:09:41 10° NE daylight
26 Jan - 15:57:16 10° W 16:05:53 40° NNW 16:14:44 10° NE visible
26 Jan - 18:05:41 10° NW 18:13:26 27° N 18:21:24 10° ENE visible
26 Jan - 20:11:51 10° NW 20:20:56 43° NNE 20:30:17 10° E visible
26 Jan - 22:16:48 10° NW 22:26:32 71° SW 22:36:32 10° SE night (unlit)
27 Jan - 00:25:08 10° W 00:30:36 16° WSW 00:36:08 10° SSW night (unlit)
27 Jan - 11:30:03 10° SSE 11:34:50 15° ESE 11:39:36 10° E daylight
27 Jan - 13:29:28 10° SW 13:38:41 72° SE 13:48:01 10° NE daylight
27 Jan - 15:35:31 10° W 15:44:11 42° NNW 15:53:03 10° NE visible
27 Jan - 17:43:57 10° NW 17:51:40 27° N 17:59:35 10° NE visible
27 Jan - 19:50:13 10° NW 19:59:12 42° NNE 20:08:27 10° E visible
27 Jan - 21:55:09 10° NW 22:04:53 75° SW 22:14:55 10° SE night (unlit)
28 Jan - 00:03:04 10° W 00:09:00 18° SW 00:15:01 10° SSW night (unlit)
28 Jan - 11:09:07 10° SSE 11:13:16 14° ESE 11:17:24 10° E daylight
28 Jan - 13:07:53 10° SW 13:17:04 68° SE 13:26:20 10° NE daylight
28 Jan - 15:13:45 10° W 15:22:29 43° NNW 15:31:24 10° NE daylight
28 Jan - 17:22:12 10° WNW 17:29:54 27° N 17:37:47 10° NE visible
28 Jan - 19:28:34 10° NW 19:37:29 40° NNE 19:46:38 10° E visible
28 Jan - 21:33:30 10° NW 21:43:14 78° SW 21:53:17 10° SE night (unlit)
28 Jan - 23:41:04 10° W 23:47:23 19° SW 23:53:51 10° SSW night (unlit)
29 Jan - 10:48:19 10° SE 10:51:42 12° ESE 10:55:04 10° E daylight
29 Jan - 12:46:20 10° SSW 12:55:28 64° SE 13:04:40 10° NE daylight
29 Jan - 14:52:00 10° W 15:00:47 45° NNW 15:09:44 10° NE daylight
29 Jan - 17:00:26 10° WNW 17:08:07 27° N 17:15:59 10° NE visible
29 Jan - 19:06:57 10° NW 19:15:44 39° NNE 19:24:47 10° E visible
29 Jan - 21:11:51 10° NW 21:21:35 82° SW 21:31:38 10° SE visible
29 Jan - 23:19:06 10° W 23:25:48 21° SW 23:32:37 10° SSW night (unlit)
30 Jan - 10:27:50 10° SE 10:30:08 11° ESE 10:32:26 10° ESE daylight
30 Jan - 12:24:47 10° SSW 12:33:51 61° SE 12:43:00 10° ENE daylight
30 Jan - 14:30:15 10° W 14:39:05 46° NNW 14:48:06 10° NE daylight
30 Jan - 16:38:41 10° WNW 16:46:21 27° N 16:54:11 10° NE visible
30 Jan - 18:45:18 10° NW 18:54:01 38° NNE 19:02:57 10° E visible
30 Jan - 20:50:12 10° NW 20:59:56 86° SW 21:09:58 10° SE visible
30 Jan - 22:57:11 10° W 23:04:11 22° SW 23:11:21 10° S night (unlit)
31 Jan - 12:03:15 10° SSW 12:12:16 57° SE 12:21:19 10° ENE daylight
31 Jan - 14:08:31 10° WSW 14:17:24 48° NNW 14:26:27 10° NE daylight
31 Jan - 16:16:54 10° WNW 16:24:35 27° N 16:32:25 10° NE visible
31 Jan - 18:23:40 10° NW 18:32:16 36° NNE 18:41:07 10° E visible
31 Jan - 20:28:34 10° NW 20:38:17 90° SW 20:48:19 10° SE visible
31 Jan - 22:35:18 10° WNW 22:42:36 24° SW 22:50:03 10° S night (unlit)
01 Feb - 11:41:43 10° SSW 11:50:40 54° SE 11:59:37 10° ENE daylight
01 Feb - 13:46:46 10° WSW 13:55:43 50° NNW 14:04:48 10° NE daylight
01 Feb - 15:55:07 10° WNW 16:02:49 27° N 16:10:39 10° NE visible
01 Feb - 18:02:01 10° NW 18:10:32 35° NNE 18:19:16 10° E visible
01 Feb - 20:06:56 10° NW 20:16:37 87° NE 20:26:37 10° SE visible
01 Feb - 22:13:27 10° WNW 22:20:59 26° SW 22:28:42 10° S night (unlit)
